User: anonymous   Login
Location: ??
(35.4032°N, 139.3073°E)
Time: 11:57:16
(UTC+00:00)
Language:

Cosmos 2278 Rocket - Orbit

View from above orbital plane
View from above orbital plane
View from above satellite
View from above satellite

Ground track
Ground track

The orbit data is extracted from the following two-line orbital elements,

1 23088U 94023B   24173.70998127 -.00000108  00000-0 -31246-4 0  9990
2 23088  70.9999 305.3631 0003674 204.6774 155.4173 14.14847420557544
Epoch (UTC): 21 June 2024 17:02:22
Eccentricity: 0.0003674
inclination: 70.9999°
perigee height: 840 km
apogee height: 845 km
right ascension of ascending node: 305.3631°
argument of perigee: 204.6774°
revolutions per day: 14.14847420
mean anomaly at epoch: 155.4173°
orbit number at epoch: 55754

The dashed part of the orbit path shows where the satellite is in the earth's shadow,  

DLR